User: anonymous   Login
Location: Nebula Knoll Observatory
(43.6666°N, 71.0000°W)
Time: 19:09:23
(UTC-05:00)
Language:

Cosmos 1782 - Orbit

View from above orbital plane
View from above orbital plane
View from above satellite
View from above satellite

Ground track
Ground track

The orbit data is extracted from the following two-line orbital elements,

1 16986U 86074A   14355.20754221  .00008222  00000-0  59305-3 0  9265
2 16986 082.5092 284.2935 0010888 193.5824 166.5111 15.03964503534074
Epoch (UTC): 21 December 2014 04:58:51
Eccentricity: 0.0010888
inclination: 82.5092°
perigee height: 547 km
apogee height: 562 km
right ascension of ascending node: 284.2935°
argument of perigee: 193.5824°
revolutions per day: 15.03964503
mean anomaly at epoch: 166.5111°
orbit number at epoch: 53407

The dashed part of the orbit path shows where the satellite is in the earth's shadow,  

DLR